Regional Weather Roundup
Issued by NWS

Home | Current Version | Previous Version | Text Only | Print | Product List | Glossary On
Versions: 1 2 3 4 5 6 7 8 9 10 11 12 13 14 15 16 17 18 19 20 21 22 23 24 25 26 27 28 29 30 31 32 33 34 35 36 37 38 39 40 41 42 43 44 45 46 47 48 49 50
000
ASUS45 KREV 031110
RWRNV
NEVADA REGIONAL WEATHER ROUNDUP
NATIONAL WEATHER SERVICE RENO NV
400 AM PDT FRI JUL 03 2015

NOTE: "FAIR" INDICATES FEW OR NO CLOUDS BELOW 12,000 FEET WITH NO
SIGNIFICANT WEATHER AND/OR OBSTRUCTIONS TO VISIBILITY.

NVZ001-003-004-031200-
WESTERN NEVADA

CITY           SKY/WX    TMP DP  RH WIND       PRES   REMARKS
RENO           CLOUDY    72  58  61 N3        30.09F
CARSON CITY    FAIR      68  57  68 NW7       30.12R
MINDEN         FAIR      63  63 100 CALM      30.12F
PYRAMID LAKE     N/A     73 N/A N/A W3          N/A
FALLON         MOCLDY    74  58  57 NW6       30.04R
LOVELOCK       CLOUDY    76  56  49 N6        30.03S
HAWTHORNE      CLEAR    N/A N/A N/A CALM      30.07S
$$

NVZ002-CAZ072-073-031200-
NORTHERN AND CENTRAL SIERRA

CITY           SKY/WX    TMP DP  RH WIND       PRES   REMARKS
S. LAKE TAHOE  CLOUDY    60  56  86 S5        30.21F
TRUCKEE        LGT RAIN  57  55  94 CALM      30.19F
SQUAW VLY 8000 NOT AVBL
SUSANVILLE     CLEAR     70  59  68 SE5       30.07R
BLUE CANYON    MOCLDY    69  53  56 E3        30.15F
MAMMOTH LAKES  FAIR      59  55  88 W7        30.30F
BRIDGEPORT     FAIR      53  49  86 CALM      30.27S
$$

NVZ030-031-036-031200-
NORTHERN NEVADA

CITY           SKY/WX    TMP DP  RH WIND       PRES   REMARKS
ELKO           PTCLDY    63  49  60 E6        30.12S
WINNEMUCCA     PTCLDY    66  50  56 SE5       30.04
WENDOVER       PTCLDY    79  45  29 CALM      30.01S
$$

NVZ035-037-031200-
CENTRAL NEVADA

CITY           SKY/WX    TMP DP  RH WIND       PRES   REMARKS
ELY            MOCLDY    62  52  69 S6        30.20F
EUREKA           N/A     64  52  64 S6        30.17F
$$

NVZ013-014-031200-
SOUTH CENTRAL NEVADA

CITY           SKY/WX    TMP DP  RH WIND       PRES   REMARKS
TONOPAH        CLEAR     69  52  54 N12       30.13S
$$

NVZ017-020-022-031200-
SOUTHERN NEVADA

CITY           SKY/WX    TMP DP  RH WIND       PRES   REMARKS
LAS VEGAS      MOCLDY    91  51  25 S15       29.81S
N. LAS VEGAS   CLEAR     89  54  30 S3        29.84R
NELLIS AFB     CLEAR     89  53  29 S7        29.81S
HENDERSON      CLEAR     87  53  31 S12       29.89S
MERCURY        CLEAR     79  49  34 N10       29.94S
$$


USA.gov is the U.S. government's official web portal to all federal, state and local government web resources and services.